星链-35513(STARLINK-35513)

导读

STARLINK-35513是美国于2025年10月8日发射的星链系列卫星,隶属于SpaceX公司的星链互联网星座项目。该项目旨在构建全球卫星互联网络,为全球用户提供覆盖广泛、低延迟的高速互联网服务,此卫星进一步扩充了星链星座的在轨规模,提升了星座服务能力。

基本信息
目录编号:
65930
目录名称:
STARLINK-35513
国际标识:
2025-225W
轨道中心:
EARTH
卫星名称:
星链-35513
卫星全名:
星链-35513(STARLINK-35513)
卫星状态:
在轨 (已飞行248 天)
发射日期:
2025-10-08 UTC
国别 :
美国 (US)
星等 :
--
轨道信息
数据来源 国际轨道数据 AOE轨道数据
星历时间 2026-06-13T09:19:39+0800
11小时前
查看轨道信息
2026-06-13T00:00:00+0800
20小时前
查看轨道信息
半长轴 6840.785km 6840.865km
偏心率 0.0001217 0.0001443
轨道倾角 53.159° 53.158°
近地点辐角 94.315° 86.191°
升交点赤经 82.389° 84.209°
平近点角 265.800° 285.869°
近地点 461.815km 461.74km
远地点 463.481km 463.716km
周期 93.847分钟 93.848分钟
每日圈数 15.344188 15.343918
详细信息
固有亮度:
5
最大亮度:
2.5
卫星平台:
Starlink V1.0
覆盖范围:
全球
运营商:
太空探索技术公司
运营商所在国:
美国
制造商(研发单位):
太空探索技术公司
制造商所在国:
美国
使用方式:
暂无
卫星简介
Starlink 计划是 SpaceX 推出的全球卫星互联网项目,通过发射低轨道卫星,为全球尤其是偏远地区提供高速、低延迟的互联网服务。自 2019 年起,Starlink 已部署数千颗卫星,旨在缩小全球数字鸿沟,推动互联网普及。该项目还为军事、航空等行业提供通信支持,带来广泛经济效益。
2D轨道图
3D轨道图
轨道高度分析图
轨道倾角分析图
轨道综合分析图
查看轨道综合分析图